Other Public Products
Issued by NWS Charleston, SC

Current Version | Previous Version | Text Only | Print | Product List | Glossary Off
Versions: 1 2 3 4 5 6 7 8 9 10 11 12 13 14 15 16 17 18 19 20 21 22 23 24 25 26 27 28 29 30 31 32 33 34 35 36 37 38 39 40 41 42 43 44 45 46 47 48 49 50

000
FPUS82 KCHS 211712
OPUCHS

TEST...KCHS/KSAV Gateway Observations...TEST
National Weather Service Charleston SC
100 PM EDT MON MAY 21 2018

NOTE: "fair" indicates few or no clouds below 12,000 feet with no
significant weather and/or obstructions to visibility.

SCZ050-WAZ558-NCZ071-TXZ119-213-PAZ071-DCZ001-FLZ074-172-MI076-
NYZ176-178-MAZ016-IL014-TNZ027-NJZ106-GAZ044-MD014-211800-

...Gateway Observations for Charleston International...

CITY           SKY/WX    TMP DP  RH WIND       PRES   REMARKS
Chas Airport   PTSUNNY   82  69  64 S9        30.17F
Seattle        PTSUNNY   59  47  64 SE5       30.08S
Charlotte      PTSUNNY   80  69  69 W5        30.17F
Dallas DFW     PTSUNNY   82  66  58 CALM      30.03F
Dallas Love    PTSUNNY   84  66  54 CALM      30.04F
Philladelphia  FAIR      75  51  43 N6        30.19F
Wash National  PTSUNNY   80  59  48 NE5       30.19F
Baltimore      PTSUNNY   76  58  53 VRB3      30.19F
Miami          CLOUDY    80  71  74 E14       30.06F
Detroit        PTSUNNY   64  46  52 E9        30.21F
Newark         PTSUNNY   75  44  33 E5        30.18F
Laguardia      PTSUNNY   74  46  36 VRB3      30.19F
J F K          PTSUNNY   70  50  49 S10       30.20F
Boston Logan   FAIR      70  50  49 SE8       30.14F
Ft. Lauderdale PTSUNNY   82  73  74 SE20      30.06F
Chicago O`Hare LGT RAIN  56  55  97 N6        30.10F FOG
Chicago Midway LGT RAIN  57  57 100 NW5       30.11R FOG
Houston Bush   PTSUNNY   78  69  73 S10       30.01S THUNDER
Houston Hobby  CLOUDY    81  75  82 CALM      30.00F
Nashville      PTSUNNY   81  67  62 S5        30.13F
Atlanta        PTSUNNY   78  65  63 SE8       30.17F

$$

GAZ044-118-TXZ119-213-NCZ071-DCZ001-MDZ014-506-PAZ021-071-NJZ106-
NYZ176-178-MAZ106-OHZ011-021-055-MIZ076-KYZ091-ILZ014-INZ047-
MNZ060-ONZ431-211800-

...Gateway Observations for Savannah International...

CITY           SKY/WX    TMP DP  RH WIND       PRES   REMARKS
Savannah Arpt  PTSUNNY   84  70  62 SE15      30.15F
Atlanta        PTSUNNY   78  65  63 SE8       30.17F
Charlotte      PTSUNNY   80  69  69 W5        30.17F
Dallas DFW     PTSUNNY   82  66  58 CALM      30.03F
Houston Bush   PTSUNNY   78  69  73 S10       30.01S THUNDER
Wash National  PTSUNNY   80  59  48 NE5       30.19F
Wash Dulles    FAIR      78  61  55 CALM      30.19F
Baltimore      PTSUNNY   76  58  53 VRB3      30.19F
Philadelphia   FAIR      75  51  43 N6        30.19F
Newark         PTSUNNY   75  44  33 E5        30.18F
Laguardia      PTSUNNY   74  46  36 VRB3      30.19F
J F K          PTSUNNY   70  50  49 S10       30.20F
Boston         FAIR      70  50  49 SE8       30.14F
Pittsburg      FAIR      75  56  51 VRB3      30.18F
Akron          PTSUNNY   74  57  55 SE6       30.18F
Cleveland      PTSUNNY   68  57  68 N7        30.20F
Cincinnati     PTSUNNY   82  66  58 S7        30.12F
Columbus       FAIR      73  65  77 MISG      30.15S
Detroit        PTSUNNY   64  46  52 E9        30.21F
Chicago O`Hare LGT RAIN  56  55  97 N6        30.10F FOG
Minneapolis    CLOUDY    63  49  60 SE8       30.07F
Indianapolis   CLOUDY    76  69  79 VRB5      30.11F
Toronto Canada PTSUNNY   66  37  34 SE8       30.24S

$$




USA.gov is the U.S. government's official web portal to all federal, state and local government web resources and services.